GW7250 Weather Reports


time (UTC)temp
F
wind
direction
speed
knots
gust
knots
rain 1hr
in
rain 24hr
in
rain mn
in
humidity
%
barometer
mb
20260509032055 54 231 0.0 0.0 0.00 0.00 0.00 71 1010.2
20260509031553 54 231 0.0 0.0 0.00 0.00 0.00 74 1010.3
20260509031050 54 231 0.0 0.0 0.00 0.00 0.00 74 1010.2
20260509030548 54 231 0.0 0.0 0.00 0.00 0.00 71 1010.2
20260509030044 54 231 0.0 0.0 0.00 0.00 0.00 75 1010.3
20260509025541 54 231 0.0 0.0 0.00 0.00 0.00 75 1010.4
20260509025036 55 231 0.0 0.0 0.00 0.00 0.00 73 1010.4
20260509024532 55 231 0.0 0.0 0.00 0.00 0.00 71 1010.5
20260509024029 55 231 0.0 0.0 0.00 0.00 0.00 70 1010.5
20260509023527 55 231 0.0 0.0 0.00 0.00 0.00 70 1010.5
20260509023023 55 231 0.0 0.0 0.00 0.00 0.00 69 1010.4
20260509022520 55 231 0.0 0.0 0.00 0.00 0.00 70 1010.6
20260509022018 56 231 0.0 0.0 0.00 0.00 0.00 67 1010.5
20260509021514 56 230 0.0 0.0 0.00 0.00 0.00 64 1010.4
20260509021011 57 230 0.0 0.0 0.00 0.00 0.00 66 1010.4
20260509020509 58 230 0.0 0.0 0.00 0.00 0.00 60 1010.6
20260509020006 58 230 0.0 0.9 0.00 0.00 0.00 55 1010.5
20260509015505 57 241 0.9 0.0 0.00 0.00 0.00 57 1010.5
20260509015002 57 241 0.0 0.0 0.00 0.00 0.00 58 1010.5
20260509014458 58 241 0.0 0.0 0.00 0.00 0.00 59 1010.5
20260509013954 59 241 0.0 0.0 0.00 0.00 0.00 54 1010.4
20260509013452 59 241 0.0 0.0 0.00 0.00 0.00 52 1010.5
20260509012947 59 243 0.9 0.9 0.00 0.00 0.00 53 1010.4
20260509012444 58 253 0.0 0.0 0.00 0.00 0.00 55 1010.4
20260509011940 60 253 0.0 0.0 0.00 0.00 0.00 56 1010.5
20260509011439 62 253 0.0 0.0 0.00 0.00 0.00 49 1010.3
20260509010936 62 253 0.0 0.0 0.00 0.00 0.00 45 1010.4
20260509010434 62 253 0.0 0.9 0.00 0.00 0.00 45 1010.3
20260509005930 63 252 0.0 0.9 0.00 0.00 0.00 47 1010.2
20260509005429 64 253 0.9 0.9 0.00 0.00 0.00 42 1010.3
20260509004928 63 253 0.9 0.9 0.00 0.00 0.00 43 1010.2
20260509004425 64 253 0.0 0.0 0.00 0.00 0.00 42 1010.0
20260509003923 64 253 0.0 0.0 0.00 0.00 0.00 42 1010.4
20260509003421 65 253 0.0 0.0 0.00 0.00 0.00 42 1010.3
20260509002917 65 253 0.0 0.0 0.00 0.00 0.00 40 1010.4
20260509002416 66 245 0.9 0.9 0.00 0.00 0.00 40 1010.4
20260509001912 67 253 0.9 1.7 0.00 0.00 0.00 39 1010.4
20260509001408 67 236 0.9 2.6 0.00 0.00 0.00 38 1010.5
20260509000906 67 256 0.9 1.7 0.00 0.00 0.00 38 1010.5
20260509000403 68 257 0.0 1.7 0.00 0.00 0.00 37 1010.5
20260508235859 68 252 2.6 3.5 0.00 0.00 0.00 36 1010.5
20260508235356 68 263 1.7 2.6 0.00 0.00 0.00 35 1010.6
20260508234854 68 253 2.6 3.5 0.00 0.00 0.00 36 1010.3
20260508234350 67 248 3.5 5.2 0.00 0.00 0.00 37 1010.5
20260508233849 68 228 0.9 2.6 0.00 0.00 0.00 37 1010.7
20260508233348 68 281 4.3 5.2 0.00 0.00 0.00 35 1010.5
20260508232844 68 278 4.3 5.2 0.00 0.00 0.00 34 1010.8
20260508232340 69 286 3.5 6.1 0.00 0.00 0.00 34 1011.0
20260508231839 69 259 4.3 7.0 0.00 0.00 0.00 34 1010.8
20260508231335 69 257 4.3 7.0 0.00 0.00 0.00 33 1011.0
20260508230831 70 305 8.7 13.0 0.00 0.00 0.00 32 1010.7
20260508230328 70 230 4.3 13.0 0.00 0.00 0.00 34 1011.1
20260508225826 70 265 4.3 7.0 0.00 0.00 0.00 34 1011.0
20260508225322 70 274 4.3 7.0 0.00 0.00 0.00 34 1010.7
20260508224820 71 247 0.9 13.0 0.00 0.00 0.00 34 1010.7
20260508224317 71 294 2.6 7.8 0.00 0.00 0.00 33 1010.7
20260508223815 70 239 3.5 7.8 0.00 0.00 0.00 33 1010.6
20260508223312 71 268 9.6 13.0 0.00 0.00 0.00 33 1010.5
20260508222810 71 191 2.6 7.8 0.00 0.00 0.00 36 1010.6
20260508222307 71 235 1.7 7.8 0.00 0.00 0.00 33 1010.3
20260508221803 71 226 2.6 3.5 0.00 0.00 0.00 35 1010.5
20260508221259 71 276 5.2 8.7 0.00 0.00 0.00 34 1010.7
20260508220755 71 277 3.5 5.2 0.00 0.00 0.00 34 1010.6
20260508220252 71 243 2.6 7.8 0.00 0.00 0.00 35 1010.4
20260508215748 72 258 2.6 8.7 0.00 0.00 0.00 34 1010.5
20260508215245 72 219 1.7 3.5 0.00 0.00 0.00 37 1010.5
20260508214742 72 268 4.3 7.8 0.00 0.00 0.00 30 1010.8
20260508214239 72 203 0.9 3.5 0.00 0.00 0.00 34 1010.7
20260508213736 71 192 3.5 3.5 0.00 0.00 0.00 35 1010.8
20260508213232 71 263 7.8 8.7 0.00 0.00 0.00 32 1011.1
20260508212729 71 231 5.2 8.7 0.00 0.00 0.00 31 1011.0
20260508212225 71 224 5.2 6.1 0.00 0.00 0.00 30 1010.8
20260508211721 71 282 7.0 12.2 0.00 0.00 0.00 32 1010.7
20260508211217 71 265 6.1 8.7 0.00 0.00 0.00 31 1010.6
20260508210715 71 253 6.1 12.2 0.00 0.00 0.00 31 1010.7
20260508210212 71 219 4.3 9.6 0.00 0.00 0.00 33 1011.2
20260508205708 72 284 9.6 13.0 0.00 0.00 0.00 29 1011.1
20260508205205 71 266 2.6 2.6 0.00 0.00 0.00 35 1011.2
20260508204701 71 294 5.2 7.8 0.00 0.00 0.00 29 1011.3
20260508204157 71 285 7.0 11.3 0.00 0.00 0.00 31 1011.4
20260508203653 71 316 12.2 13.0 0.00 0.00 0.00 28 1011.7
20260508203150 71 278 0.9 3.5 0.00 0.00 0.00 33 1011.6
20260508202646 70 176 2.6 7.8 0.00 0.00 0.00 31 1011.6
20260508202144 71 244 4.3 11.3 0.00 0.00 0.00 30 1011.6
20260508201640 72 282 2.6 9.6 0.00 0.00 0.00 34 1011.9
20260508201137 71 275 5.2 7.0 0.00 0.00 0.00 35 1011.9
20260508200634 71 256 10.4 12.2 0.00 0.00 0.00 30 1012.2
20260508200129 71 307 3.5 11.3 0.00 0.00 0.00 31 1012.3
20260508195626 71 296 4.3 9.6 0.00 0.00 0.00 29 1012.4
20260508195122 71 282 5.2 7.0 0.00 0.00 0.00 34 1012.3
20260508194619 71 291 9.6 12.2 0.00 0.00 0.00 32 1012.0
20260508194117 71 247 0.0 8.7 0.00 0.00 0.00 33 1012.1
20260508193613 71 282 1.7 7.8 0.00 0.00 0.00 32 1012.1
20260508193110 70 262 5.2 9.6 0.00 0.00 0.00 32 1012.1
20260508192607 71 274 4.3 8.7 0.00 0.00 0.00 30 1012.1
20260508192104 71 183 1.7 9.6 0.00 0.00 0.00 33 1012.1
20260508191600 70 251 1.7 7.8 0.00 0.00 0.00 31 1012.0
20260508191057 71 252 5.2 7.8 0.00 0.00 0.00 30 1012.1
20260508190554 70 270 3.5 13.0 0.00 0.00 0.00 37 1012.1
20260508190050 70 119 1.7 11.3 0.00 0.00 0.00 33 1012.7
20260508185548 71 290 10.4 12.2 0.00 0.00 0.00 31 1012.5
20260508185045 71 295 6.1 8.7 0.00 0.00 0.00 32 1012.6
20260508184543 70 182 0.9 2.6 0.00 0.00 0.00 36 1012.5
20260508184039 70 232 6.1 12.2 0.00 0.00 0.00 30 1012.7
20260508183536 70 151 3.5 5.2 0.00 0.00 0.00 31 1012.8
20260508183032 69 243 3.5 7.0 0.00 0.00 0.00 31 1012.8
20260508182529 69 200 2.6 7.0 0.00 0.00 0.00 30 1012.8
20260508182025 69 166 1.7 7.0 0.00 0.00 0.00 31 1012.9
20260508181520 69 40 1.7 9.6 0.00 0.00 0.00 38 1012.9
20260508181019 70 252 3.5 6.1 0.00 0.00 0.00 32 1013.3
20260508180515 69 189 1.7 8.7 0.00 0.00 0.00 33 1013.2
20260508180011 69 277 5.2 7.8 0.00 0.00 0.00 33 1013.5
20260508175508 70 284 7.8 12.2 0.00 0.00 0.00 31 1013.3
20260508175005 69 170 1.7 7.8 0.00 0.00 0.00 34 1013.6
20260508174503 69 266 1.7 11.3 0.00 0.00 0.00 32 1013.6
20260508173959 69 204 3.5 3.5 0.00 0.00 0.00 33 1013.8
20260508173457 69 157 6.1 7.0 0.00 0.00 0.00 35 1014.0
20260508172952 69 229 6.1 8.7 0.00 0.00 0.00 38 1014.2
20260508172449 69 275 3.5 7.0 0.00 0.00 0.00 36 1014.2
20260508171946 69 263 3.5 5.2 0.00 0.00 0.00 32 1014.2
20260508171443 68 272 3.5 6.1 0.00 0.00 0.00 36 1014.3
20260508170939 68 209 3.5 7.0 0.00 0.00 0.00 40 1014.4
20260508170437 68 267 4.3 8.7 0.00 0.00 0.00 36 1014.4
20260508165933 68 166 3.5 5.2 0.00 0.00 0.00 36 1014.5
20260508165432 68 284 7.0 8.7 0.00 0.00 0.00 35 1014.7
20260508164927 68 260 0.9 6.1 0.00 0.00 0.00 38 1014.7
20260508164424 67 203 1.7 6.1 0.00 0.00 0.00 42 1014.8
20260508163921 68 269 4.3 6.1 0.00 0.00 0.00 42 1014.9
20260508163419 67 270 0.9 2.6 0.00 0.00 0.00 48 1015.3
20260508162914 67 294 0.9 6.1 0.00 0.00 0.00 41 1015.4
20260508162412 67 259 5.2 9.6 0.00 0.00 0.00 36 1015.4
20260508161909 67 255 2.6 6.1 0.00 0.00 0.00 38 1015.5
20260508161406 67 246 2.6 3.5 0.00 0.00 0.00 39 1015.4
20260508160903 67 222 2.6 3.5 0.00 0.00 0.00 43 1015.5
20260508160402 66 284 5.2 7.8 0.00 0.00 0.00 41 1015.5
20260508155857 66 256 2.6 7.0 0.00 0.00 0.00 43 1015.5
20260508155355 66 251 1.7 2.6 0.00 0.00 0.00 40 1015.8
20260508154852 65 258 5.2 7.0 0.00 0.00 0.00 41 1015.9
20260508154349 66 298 5.2 7.0 0.00 0.00 0.00 42 1016.0
20260508153846 66 216 0.9 6.1 0.00 0.00 0.00 40 1015.7
20260508153343 66 279 4.3 7.0 0.00 0.00 0.00 42 1016.0
20260508152839 65 249 1.7 5.2 0.00 0.00 0.00 41 1016.3
20260508152336 64 230 2.6 3.5 0.00 0.00 0.00 42 1016.2
20260508151832 64 260 3.5 7.8 0.00 0.00 0.00 43 1016.2
20260508151329 64 283 6.1 7.0 0.00 0.00 0.00 45 1016.5
20260508150825 64 324 4.3 8.7 0.00 0.00 0.00 44 1016.4
20260508150322 64 300 4.3 6.1 0.00 0.00 0.00 44 1016.3
20260508145818 64 271 3.5 7.0 0.00 0.00 0.00 43 1016.5
20260508145315 64 282 3.5 7.0 0.00 0.00 0.00 42 1016.2
20260508144812 64 302 2.6 2.6 0.00 0.00 0.00 45 1016.4
20260508144310 63 247 2.6 5.2 0.00 0.00 0.00 44 1016.4
20260508143807 62 203 2.6 7.8 0.00 0.00 0.00 44 1016.5
20260508143304 62 239 4.3 6.1 0.00 0.00 0.00 45 1016.5
20260508142800 62 288 5.2 6.1 0.00 0.00 0.00 46 1016.4
20260508142257 62 287 3.5 8.7 0.00 0.00 0.00 47 1016.3
20260508141754 61 232 5.2 7.8 0.00 0.00 0.00 42 1016.3
20260508141251 61 237 4.3 6.1 0.00 0.00 0.00 44 1016.2
20260508140748 61 288 3.5 5.2 0.00 0.00 0.00 47 1016.3
20260508140245 61 232 3.5 5.2 0.00 0.00 0.00 45 1016.2
20260508135741 60 276 1.7 3.5 0.00 0.00 0.00 50 1016.3
20260508135237 60 237 4.3 6.1 0.00 0.00 0.00 46 1016.4
20260508134733 60 251 3.5 3.5 0.00 0.00 0.00 48 1016.3
20260508134230 59 258 3.5 6.1 0.00 0.00 0.00 45 1016.4
20260508133727 58 277 4.3 5.2 0.00 0.00 0.00 51 1016.4
20260508133225 58 293 1.7 3.5 0.00 0.00 0.00 56 1016.6
20260508132722 58 272 3.5 5.2 0.00 0.00 0.00 51 1016.2
20260508132220 57 254 0.9 0.9 0.00 0.00 0.00 54 1016.3
20260508131715 56 255 0.9 1.7 0.00 0.00 0.00 55 1016.4
20260508131212 56 285 0.9 1.7 0.00 0.00 0.00 58 1016.6
20260508130708 57 261 0.9 1.7 0.00 0.00 0.00 53 1016.5
20260508130206 55 260 0.0 0.0 0.00 0.00 0.00 58 1016.4
20260508125701 54 253 0.9 0.9 0.00 0.00 0.00 58 1016.4
20260508125157 54 269 0.0 0.9 0.00 0.00 0.00 60 1016.5
20260508124656 55 248 1.7 1.7 0.00 0.00 0.00 56 1016.4
20260508124152 53 161 0.0 0.0 0.00 0.00 0.00 63 1016.5
20260508123651 53 160 0.0 0.0 0.00 0.00 0.00 62 1016.4
20260508123148 51 156 0.0 0.0 0.00 0.00 0.00 67 1016.7
20260508122644 49 137 0.0 0.0 0.00 0.00 0.00 70 1016.4
20260508122141 48 137 0.9 0.9 0.00 0.00 0.00 71 1016.2
20260508121639 47 137 0.0 0.9 0.00 0.00 0.00 76 1016.3
20260508121137 46 136 0.9 0.9 0.00 0.00 0.00 77 1016.5
20260508120634 45 136 0.0 0.0 0.00 0.00 0.00 79 1016.3
20260508120133 44 136 0.9 0.9 0.00 0.00 0.00 81 1016.5
20260508115630 43 136 0.9 0.9 0.00 0.00 0.00 82 1016.1
20260508115126 42 136 0.0 0.9 0.00 0.00 0.00 83 1016.4
20260508114624 42 136 0.9 0.9 0.00 0.00 0.00 86 1016.3
20260508114119 40 136 0.0 0.9 0.00 0.00 0.00 91 1016.4
20260508113617 39 135 0.9 0.9 0.00 0.00 0.00 96 1016.3
20260508113115 38 135 0.0 0.9 0.00 0.00 0.00 97 1016.1
20260508112611 38 135 0.0 0.0 0.00 0.00 0.00 97 1016.1
20260508112108 37 135 0.0 0.0 0.00 0.00 0.00 97 1015.9
20260508111605 36 135 0.0 0.0 0.00 0.00 0.00 97 1015.9
20260508111102 36 135 0.0 0.0 0.00 0.00 0.00 97 1016.0
20260508110600 35 135 0.0 0.0 0.00 0.00 0.00 97 1015.7
20260508110055 36 135 0.0 0.0 0.00 0.00 0.00 97 1015.9
20260508105550 36 135 0.0 0.0 0.00 0.00 0.00 97 1015.6
20260508105048 35 135 0.0 0.0 0.00 0.00 0.00 97 1015.6
20260508104546 35 135 0.0 0.0 0.00 0.00 0.00 97 1015.8
20260508104042 34 135 0.0 0.0 0.00 0.00 0.00 97 1015.7
20260508103539 34 135 0.0 0.0 0.00 0.00 0.00 96 1015.7
20260508103037 35 135 0.0 0.0 0.00 0.00 0.00 96 1015.7
20260508102534 35 135 0.0 0.0 0.00 0.00 0.00 96 1015.8
20260508102032 35 135 0.0 0.0 0.00 0.00 0.00 96 1015.6
20260508101529 34 135 0.0 0.0 0.00 0.00 0.00 96 1015.7
20260508101026 34 135 0.0 0.0 0.00 0.00 0.00 96 1015.3
20260508100524 34 135 0.0 0.0 0.00 0.00 0.00 96 1015.5
20260508100021 34 135 0.0 0.0 0.00 0.00 0.00 96 1015.5
20260508095518 35 135 0.0 0.0 0.00 0.00 0.00 96 1015.5
20260508095015 35 135 0.0 0.0 0.00 0.00 0.00 96 1015.3
20260508094512 35 135 0.0 0.0 0.00 0.00 0.00 96 1015.5
20260508094009 35 135 0.0 0.0 0.00 0.00 0.00 96 1015.4
20260508093506 35 135 0.0 0.0 0.00 0.00 0.00 95 1015.5
20260508093004 35 135 0.0 0.0 0.00 0.00 0.00 96 1015.4
20260508092500 35 135 0.0 0.0 0.00 0.00 0.00 95 1015.6
20260508092000 35 135 0.0 0.0 0.00 0.00 0.00 95 1015.5
20260508091456 35 135 0.0 0.0 0.00 0.00 0.00 95 1015.5
20260508090953 35 135 0.0 0.0 0.00 0.00 0.00 95 1015.6
20260508090451 36 135 0.0 0.0 0.00 0.00 0.00 95 1015.6
20260508085947 37 135 0.0 0.0 0.00 0.00 0.00 96 1015.7
20260508085444 37 135 0.0 0.9 0.00 0.00 0.00 96 1015.6
20260508084941 37 135 0.0 0.0 0.00 0.00 0.00 96 1015.4
20260508084437 38 135 0.0 0.0 0.00 0.00 0.00 96 1015.4
20260508083936 37 135 0.0 0.0 0.00 0.00 0.00 96 1015.5
20260508083432 37 135 0.0 0.0 0.00 0.00 0.00 96 1015.5
20260508082932 37 135 0.0 0.0 0.00 0.00 0.00 96 1015.7
20260508082429 37 135 0.0 0.9 0.00 0.00 0.00 96 1015.5
20260508081928 37 134 0.9 0.9 0.00 0.00 0.00 96 1015.6
20260508081424 37 132 0.0 0.0 0.00 0.00 0.00 96 1015.5
20260508080920 37 132 0.0 0.0 0.00 0.00 0.00 96 1015.5
20260508080419 36 132 0.0 0.0 0.00 0.00 0.00 95 1015.6
20260508075915 37 132 0.0 0.0 0.00 0.00 0.00 95 1015.8
20260508075412 37 132 0.0 0.0 0.00 0.00 0.00 96 1015.7
20260508074910 37 132 0.0 0.9 0.00 0.00 0.00 96 1015.5
20260508074407 37 132 0.9 0.9 0.00 0.00 0.00 96 1015.5
20260508073903 36 103 0.9 0.9 0.00 0.00 0.00 96 1015.5
20260508073401 37 86 0.0 0.0 0.00 0.00 0.00 95 1015.6
20260508072858 37 86 0.0 0.0 0.00 0.00 0.00 95 1015.5
20260508072354 37 86 0.0 0.0 0.00 0.00 0.00 95 1015.6
20260508071852 37 86 0.0 0.0 0.00 0.00 0.00 95 1015.6
20260508071350 37 86 0.0 0.0 0.00 0.00 0.00 95 1015.6
20260508070848 37 86 0.0 0.0 0.00 0.00 0.00 95 1015.5
20260508070345 37 86 0.0 0.0 0.00 0.00 0.00 95 1015.6
20260508065843 36 86 0.0 0.0 0.00 0.00 0.00 94 1015.7
20260508065341 37 86 0.0 0.0 0.00 0.00 0.00 94 1015.7
20260508064839 37 86 0.0 0.9 0.00 0.00 0.00 94 1015.6
20260508064336 38 128 0.0 0.0 0.00 0.00 0.00 95 1015.6
20260508063833 38 128 0.9 0.9 0.00 0.00 0.00 95 1015.6
20260508063331 38 127 0.9 0.9 0.00 0.00 0.00 94 1015.7
20260508062828 37 71 0.0 0.0 0.00 0.00 0.00 94 1015.7
20260508062326 37 70 0.0 0.0 0.00 0.00 0.00 93 1015.9
20260508061822 37 70 0.9 0.9 0.00 0.00 0.00 93 1015.8
20260508061319 38 71 0.0 0.0 0.00 0.00 0.00 92 1015.7
20260508060816 39 72 0.0 0.0 0.00 0.00 0.00 93 1015.9
20260508060314 39 72 0.9 0.9 0.00 0.00 0.00 94 1015.8
20260508055814 38 69 0.9 0.9 0.00 0.00 0.00 94 1016.0
20260508055312 38 359 0.9 0.9 0.00 0.00 0.00 93 1016.1
20260508054809 38 359 0.0 0.0 0.00 0.00 0.00 91 1015.9
20260508054306 38 359 0.0 0.0 0.00 0.00 0.00 91 1016.1
20260508053803 39 359 0.0 0.0 0.00 0.00 0.00 90 1016.2
20260508053300 40 359 0.0 0.0 0.00 0.00 0.00 90 1016.2
20260508052757 40 359 0.0 0.0 0.00 0.00 0.00 91 1016.4
20260508052255 39 0 0.0 0.0 0.00 0.00 0.00 93 1016.3
20260508051750 39 359 0.0 0.0 0.00 0.00 0.00 94 1016.5
20260508051246 38 359 0.9 0.9 0.00 0.00 0.00 94 1016.3
20260508050743 38 359 0.0 0.0 0.00 0.00 0.00 94 1016.2
20260508050240 38 359 0.0 0.0 0.00 0.00 0.00 94 1016.4
20260508045735 38 359 0.0 0.0 0.00 0.00 0.00 94 1016.1
20260508045234 38 359 0.0 0.0 0.00 0.00 0.00 94 1016.3
20260508044731 38 0 0.0 0.0 0.00 0.00 0.00 94 1016.0
20260508044228 38 359 0.0 0.0 0.00 0.00 0.00 93 1016.0
20260508043723 38 359 0.0 0.0 0.00 0.00 0.00 93 1016.0
20260508043221 39 0 0.0 0.0 0.00 0.00 0.00 93 1015.9
20260508042718 40 0 0.0 0.0 0.00 0.00 0.00 94 1016.0
20260508042215 38 0 0.0 0.0 0.00 0.00 0.00 93 1016.0
20260508041711 39 0 0.0 0.0 0.00 0.00 0.00 92 1015.9
20260508041208 40 0 0.0 0.0 0.00 0.00 0.00 92 1016.0
20260508040705 40 0 0.0 0.0 0.00 0.00 0.00 92 1016.1
20260508040202 40 0 0.0 0.0 0.00 0.00 0.00 93 1015.9
20260508035659 40 0 0.0 0.0 0.00 0.00 0.00 93 1016.0
20260508035157 40 0 0.0 0.9 0.00 0.00 0.00 93 1015.7
20260508034653 40 359 0.0 0.0 0.00 0.00 0.00 91 1015.9
20260508034150 40 359 0.0 0.0 0.00 0.00 0.00 91 1016.2
20260508033648 40 0 0.0 0.0 0.00 0.00 0.00 91 1016.1
20260508033146 41 0 0.0 0.0 0.00 0.00 0.00 90 1015.8
20260508032642 41 0 0.0 0.0 0.00 0.00 0.00 91 1016.0